Content
SEND FEEDBACK

Daily
Averages
Monthly
Summary
United States of America

MANSFIELD CENTER, CONNECTICUT


Home > North America > United States > Connecticut
Elevation: 255 feet     Latitude: 41 45N     Longitude: 072 11W

WEATHER
 
SELECT A DAY
Number of Records: 204,680;   Date Range: 7/1/96 - 12/18/14
 
SHARE

PRINT THIS DATA

[ ← Previous Day ]
WEATHER ALMANAC - FEBRUARY 13, 2013
[ Next Day → ]
[ °C ]   °F
Weather ElementAverageHighLow
Temperature36.2 °F43 °F (2:52 pm)33.1 °F (9:52 pm)
Dewpoint20.9 °F25 °F (9:52 pm)17.1 °F (1:52 am)
Humidity54.5 %72 % (9:52 pm)38 % (2:52 pm)
Barometer29.81 in29.91 in (2:52 am)29.70 in (10:52 pm)
Wind Speed2.8 mph6.9 mph (8:52 am)
Weather ElementAverage
Visibility10 mi
Wind DirectionSE (137 °)

Weather ElementTotal
Precipitation---
Heating Degree Days27 (Base 65)
Averaged from 23 records on February 13, 2013
WEATHER CONDITIONS BREAKOUT
WIND DIRECTION BREAKOUT
WEATHER BY HOUR - FEBRUARY 13, 2013
[ °C ]   °F
Local TimeTemperatureDewpointHumidityBarometerVisibilityWind DirectionWind SpeedGust SpeedPrecipitationEventsConditions
1:52 AM34.0 °F17.1 °F50 %29.88 in10.0 miWest (260°)4.6 mphClear
2:52 AM35.1 °F18.0 °F50 %29.91 in10.0 miWest (270°)5.8 mphOvercast
3:52 AM34.0 °F19.0 °F54 %29.90 in10.0 miWSW (250°)3.5 mphOvercast
4:52 AM35.1 °F19.0 °F52 %29.90 in10.0 miWSW (250°)3.5 mphOvercast
5:52 AM34.0 °F19.9 °F56 %29.88 in10.0 miWNW (300°)4.6 mphOvercast
6:52 AM34.0 °F19.9 °F56 %29.88 in10.0 miWNW (300°)5.8 mphOvercast
7:52 AM34.0 °F21.0 °F59 %29.89 in10.0 miCalmOvercast
8:52 AM35.1 °F21.0 °F57 %29.90 in10.0 miNNW (340°)6.9 mphOvercast
9:52 AM36.0 °F21.0 °F55 %29.88 in10.0 miNNW (330°)5.8 mphMostly Cloudy
10:52 AM37.0 °F19.9 °F50 %29.87 in10.0 miWest (260°)4.6 mphScattered Clouds
11:52 AM37.9 °F19.9 °F48 %29.85 in10.0 miWest (270°)5.8 mphClear
12:52 PM39.9 °F19.9 °F45 %29.84 in10.0 miWest (280°)5.8 mphClear
1:52 PM41.0 °F19.9 °F43 %29.80 in10.0 miCalmClear
2:52 PM43.0 °F19.0 °F38 %29.76 in10.0 miCalmClear
3:52 PM42.1 °F19.9 °F41 %29.76 in10.0 miCalmClear
4:52 PM39.9 °F21.0 °F47 %29.75 in10.0 miCalmClear
5:52 PM36.0 °F23.0 °F59 %29.74 in10.0 miCalmClear
6:52 PM35.1 °F23.0 °F61 %29.73 in10.0 miCalmPartly Cloudy
7:52 PM36.0 °F23.0 °F59 %29.73 in10.0 miCalmScattered Clouds
8:52 PM34.0 °F24.1 °F67 %29.72 in10.0 miCalmScattered Clouds
9:52 PM33.1 °F25.0 °F72 %29.73 in10.0 miCalmMostly Cloudy
10:52 PM33.1 °F24.1 °F70 %29.70 in10.0 miNNE (30°)4.6 mphOvercast
11:52 PM34.0 °F23.0 °F64 %29.72 in10.0 miNorth (10°)3.5 mphOvercast
Hourly data recorded from KIJD, located miles away from Mansfield Center, Connecticut







STORIES FROM OUR PARTNERS